Regional Weather Roundup
Issued by NWS Jackson, KY

Home | Current Version | Previous Version | Text Only | Print | Product List | Glossary Off
Versions: 1 2 3 4 5 6 7 8 9 10 11 12 13 14 15 16 17 18 19 20 21 22 23 24 25 26 27 28 29 30 31 32 33 34 35 36 37 38 39 40 41 42 43 44 45 46 47 48 49 50

000
ASUS43 KJKL 051310
RWRJKL

EAST KENTUCKY HOURLY WEATHER ROUNDUP
NATIONAL WEATHER SERVICE JACKSON KY
900 AM EDT TUE MAY 05 2015

NOTE: "FAIR" INDICATES FEW OR NO CLOUDS BELOW 12,000 FEET WITH
NO SIGNIFICANT WEATHER AND/OR OBSTRUCTIONS TO VISIBILITY.

* THESE REPORTS ARE NOT UNDER NWS QUALITY CONTROL AND MAY NOT
  REPORT WEATHER SUCH AS PRECIPITATION AND FOG.

KYZ079-080-083-085-087-088-110-112-115-119-120-051400
...EASTERN KENTUCKY...

CITY           SKY/WX    TMP DP  RH WIND       PRES   REMARKS
JACKSON        SUNNY     64  52  64 CALM      30.33R
LONDON         SUNNY     64  52  64 CALM      30.33S
SOMERSET*      SUNNY     61  52  72 CALM      30.34R
MONTICELLO*    SUNNY     66  57  72 CALM      30.35R
MIDDLESBORO*   SUNNY     57  53  88 CALM      30.37S
HARLAN APT*    SUNNY     55  52  88 SE3       30.37S
HAZARD APT*    SUNNY     64  55  72 CALM      30.34R
BLACK MTN*       N/A     64  48  55 NW2         N/A
PIKEVILLE APT* MOSUNNY   63  52  67 S5        30.34R
BIG SANDY*     SUNNY     66  54  65 S5        30.33R
MOREHEAD APT*  SUNNY     70  54  56 SW7       30.33R
$$

KYZ035-036-041-042-044-050-067-078-099-051400
...CENTRAL KENTUCKY...

CITY           SKY/WX    TMP DP  RH WIND       PRES   REMARKS
MT STERLING*   SUNNY     66  55  68 W5        30.32S
FLEMING/MASON* SUNNY     66  57  72 SW3       30.32R
DANVILLE*      SUNNY     64  55  72 S5        30.32S
RICHMOND*      SUNNY     68  52  56 SW6       30.31R
LEXINGTON      SUNNY     68  55  63 SW8       30.30R
FRANKFORT      SUNNY     68  55  63 SW7       30.28R
$$

KYZ091>093-OHZ055-061-077-WVZ005-015-034-035-042-051400
...SOUTHERN OHIO/WEST VIRGINIA...

CITY           SKY/WX    TMP DP  RH WIND       PRES   REMARKS
COVINGTON      MOSUNNY   68  59  73 S5        30.27R
COLUMBUS       CLOUDY    64  59  83 CALM      30.28R
DAYTON         PTSUNNY   65  62  90 SE5       30.29R FOG
WILMINGTON     MOSUNNY   67  58  72 SE6       30.28S
HUNTINGTON     SUNNY     65  54  67 S3        30.30R
CHARLESTON     PTSUNNY   66  55  67 CALM      30.31R
PINEVILLE*     SUNNY     58  55  89 MISG      30.42R
BECKLEY        SUNNY     67  47  48 VRB6      30.38R
BLUEFIELD      SUNNY     66  48  52 W6        30.40R
$$

VAZ002-007-008-TNZ017-027-036-066-071-051400
...SOUTHWEST VIRGINIA/EAST TENNESSEE...

CITY           SKY/WX    TMP DP  RH WIND       PRES   REMARKS
WISE*          SUNNY     66  46  48 SW3       30.40S
JONESVILLE*    SUNNY     59  52  77 CALM      30.39S
ABINGDON*      MOSUNNY   63  54  73 CALM      30.39S
BRISTOL        MOSUNNY   61  54  77 CALM      30.38R
KNOXVILLE      SUNNY     63  54  72 CALM      30.34R
OAK RIDGE      SUNNY     62  54  74 CALM      30.36R
CROSSVILLE     SUNNY     64  53  67 CALM      30.36S
NASHVILLE      SUNNY     65  56  72 S5        30.30R
$$

...KEY TO REMARKS...
VSB - VISIBILITY IN MILES
WCI - WIND CHILL INDEX
HX  - HEAT INDEX

$$



USA.gov is the U.S. government's official web portal to all federal, state and local government web resources and services.